Printer-friendly version

IAU Minor Planet Center

Minor Planet Center

MPEC 2001-U12: 2001 TX44

The following Minor Planet Electronic Circular may be linked-to from your own Web pages, but must not otherwise be redistributed electronically.


Read MPEC 2001-U11 Read MPEC 2001-U13


M.P.E.C. 2001-U12                                Issued 2001 Oct. 17, 19:10 UT

     The Minor Planet Electronic Circulars contain information on unusual
         minor planets and routine data on comets.  They are published
   on behalf of Commission 20 of the International Astronomical Union by the
          Minor Planet Center, Smithsonian Astrophysical Observatory,
                          Cambridge, MA 02138, U.S.A.

             Prepared using the Tamkin Foundation Computer Network

                              MPC@CFA.HARVARD.EDU
          URL http://cfa-www.harvard.edu/iau/mpc.html  ISSN 1523-6714

                                   2001 TX44

Observations:
     K01T44X* C2001 10 11.34713 03 51 28.30 -07 32 18.0          19.2        704
     K01T44X  C2001 10 11.36362 03 51 25.90 -07 32 34.5          19.6        704
     K01T44X  C2001 10 11.37979 03 51 23.64 -07 32 52.2          19.1        704
     K01T44X  C2001 10 14.35462 03 43 57.91 -08 24 40.3          18.8 R      699
     K01T44X  C2001 10 14.38217 03 43 53.15 -08 25 11.8                      699
     K01T44X  C2001 10 14.40983 03 43 48.46 -08 25 40.6                      699
     K01T44X  C2001 10 14.43747 03 43 43.64 -08 26 09.9                      699
     K01T44X  C2001 10 15.31753 03 41 14.56 -08 41 56.9          18.7        704
     K01T44X  C2001 10 15.33332 03 41 11.67 -08 42 14.3          18.7        704
     K01T44X  C2001 10 15.34909 03 41 08.77 -08 42 31.0          19.1        704
     K01T44X  C2001 10 15.36485 03 41 05.91 -08 42 48.4          18.7        704
     K01T44X  C2001 10 15.38062 03 41 02.98 -08 43 05.2          18.7        704
     K01T44X  C2001 10 15.98543 03 39 15.11 -08 54 06.3          17.7 R      046
     K01T44X  C2001 10 15.98834 03 39 14.51 -08 54 09.7                      046
     K01T44X  C2001 10 15.99095 03 39 14.02 -08 54 13.8                      046
     K01T44X  C2001 10 15.99237 03 39 13.80 -08 54 14.4                      046
     K01T44X  C2001 10 15.99360 03 39 13.50 -08 54 15.4                      046
     K01T44X  C2001 10 15.99483 03 39 13.33 -08 54 16.8                      046

Observer details:
046 Klet.  Observer M. Tichy.  0.57-m f/5.2 reflector + CCD.
699 Lowell Observatory-LONEOS.  Observer B. W. Koehn.  0.59-m LONEOS
    Schmidt + CCD.
704 Lincoln Laboratory ETS, New Mexico.  Observers M. Blythe, F. Shelly,
    M. Bezpalko, R. Huber, L. Manguso, S. Adams, J. Piscitelli.  Measurers
    J. Stuart, R. Sayer, J. B. Evans, H. Viggh.  1.0-m f/2.15 reflector + CCD.

Orbital elements:
2001 TX44                                                            PHA 0.004
Epoch 2001 Sept. 28.0 TT = JDT 2452180.5                Spahr
M 199.39937              (2000.0)            P               Q
n   1.20427533     Peri.  136.10341     -0.95008601     +0.21639989
a   0.8749546      Node    57.68443     -0.30424923     -0.80209492
e   0.5510215      Incl.   15.42203     +0.06905777     -0.55661013
P   0.82           H   18.5           G   0.15
From 18 observations 2001 Oct. 11-15.

Ephemeris:
2001 TX44                a,e,i = 0.87, 0.55, 15                  q = 0.3928
Date    TT    R. A. (2000) Decl.     Delta      r     Elong.  Phase     V
2001 10 18    03 32.75   -09 30.7    0.352    1.299   144.3    26.6    18.0
2001 10 28    02 48.28   -12 30.4    0.294    1.262   152.7    21.2    17.4
2001 11 07    01 44.39   -14 20.8    0.260    1.215   145.6    27.5    17.2
2001 11 17    00 33.99   -13 40.9    0.257    1.158   125.9    43.8    17.6
2001 11 27    23 34.88   -10 54.0    0.275    1.091   105.0    60.9    18.1
2001 12 07    22 51.25   -07 27.5    0.303    1.012    86.4    76.2    18.6
2001 12 17    22 17.20   -04 17.4    0.333    0.923    69.6    90.6    19.1

Timothy B. Spahr             (C) Copyright 2001 MPC           M.P.E.C. 2001-U12

Read MPEC 2001-U11 Read MPEC 2001-U13


Our Web policy. Index to the CBAT/MPC/ICQ pages.


Valid HTML 4.01!